OPS 4682 DEB, 14716

Orbit data source: Space-Track

OPS 4682 DEB, 14716 is space debris in LEO originally from a launch on Sat, 03 Apr 1965 UTC launched from the Air Force Western Test Range (AFWTR). Debris objects in space refer to the collection of defunct objects orbiting the Earth. Examples of debris include non-operational satellites, rocket bodies, and fragments generated from explosions, collisions, or faulty payload assembly.

Loading next visibility...
Identifier
14716, 1965-027P
Orbit
LEO
Country
Flag of USUS
Related business
Manufacturer
Unknown
Mission
Spacecraft
Bus & Motor
Unknown
Mass
Unknown
Launch date (UTC)
1965-04-03 (61 years ago)
Launch vehicle
Unknown
Launch site
Air Force Western Test Range (AFWTR)
Object type
Payload
Rocket body
Debris
Shape & HBR
Unknown shape, 0.1 m
Radar Cross Section
Medium (>0.1 m² and <1 m²)

Expand to show TLE details & history
Last TLE update: 10 hours ago

TLE from 10 hours ago
0 OPS 4682 DEB
1 14716U 65027P   26150.11080676  .00000933  00000-0  30846-2 0  9990
2 14716  90.2523  13.7672 0029964   4.4058 149.7439 12.99653690437123
Epoch: 2026-05-30T02:39Z
TLE epoch observation values (Epoch: 2026-05-30T02:39:33.704Z)
Latitude
25.70565°
Longitude
-93.63392°
Altitude
1,286.359 km
Speed
7.206 km/s
True Right ascension
12h 55m 33s
True Declination
25° 34' 51"
Sunlit
Object was in daylight at epoch
Visualization orbit readout
Latitude
Unknown
Longitude
Unknown
Altitude
Unknown
Speed
Unknown
Apparent Right ascension
Unknown
Apparent Declination
Unknown
Sunlit
N/A
Visualization observer readout
Local Sidereal Time
22:04:24
Azimuth
Unknown
Elevation
Unknown
Doppler factor
Unknown
Orbital elements
Apogee altitude
1,283.46 km
Perigee altitude
1,237.683 km
Semi-major axis
7,638.708 km
Eccentricity
0.003
Inclination
90.2523°
RAAN
13.7672°
Arg. of periapsis
4.4058°
True anomaly
149.91635°
Mean anomaly
149.7439°
Eccentric anomaly
149.83018°
Mean motion
3.25097 °/min
Orbital period
110.74 mins
BSTAR
0.0030846
Loading maneuver chart data...
Computing Atmospheric mass density...
Loading historical data...
Loading historical data...
Loading historical data...
Loading historical data...
Loading historical data...
Loading historical data...
Loading historical data...

Documentation

Showing up to 5 results
|